Regional Weather Roundup
Issued by NWS

Home | Current Version | Previous Version | Graphics & Text | Print | Product List | Glossary On
Versions: 1 2 3 4 5 6 7 8 9 10 11 12 13 14 15 16 17 18 19 20 21 22 23 24 25 26 27 28 29 30 31 32 33 34 35 36 37 38 39 40 41 42 43 44 45 46 47 48 49 50
000
ASUS43 KLSX 231357
RWRMO

WEATHER SUMMARY FOR MISSOURI
NATIONAL WEATHER SERVICE SPRINGFIELD MO
900 AM CDT SAT JUL 23 2016

NOTE: "FAIR" INDICATES FEW OR NO CLOUDS BELOW 12,000 FEET WITH NO
       SIGNIFICANT WEATHER AND/OR OBSTRUCTIONS TO VISIBILITY.
       CURRENT SKY AND/OR WEATHER CONDITIONS ARE NOT AVAILABLE FOR
       CHILLICOTHE AND FARMINGTON.

MOZ001>031-035>038-043-044-053-054-231500-
...NORTHERN AND WESTERN MISSOURI...

CITY           SKY/WX    TMP DP  RH WIND       PRES   REMARKS
KANSAS CTY INT CLOUDY    83  74  74 SW9       29.97R
LEE`S SUMMIT   MOSUNNY   86  73  65 SW9       29.99R HX  93
ST JOSEPH      CLOUDY    84  74  71 SW12G22   29.92F HX  91

$$
MOZ066>068-077>081-088>096-101>105-231500-
...SOUTHWEST MISSOURI...

CITY           SKY/WX    TMP DP  RH WIND       PRES   REMARKS
SPRINGFIELD    SUNNY     85  74  69 SW8       30.03R HX  92
JOPLIN         SUNNY     87  75  67 S7        30.01R HX  96
BRANSON        SUNNY     86  73  66 CALM      30.05R HX  93

$$
MOZ032>034-039>042-045>050-055>058-069>072-231500-
...CENTRAL MISSOURI...

CITY           SKY/WX    TMP DP  RH WIND       PRES   REMARKS
COLUMBIA       NOT AVBL
JEFFERSON CITY SUNNY     84  75  74 CALM      29.98S HX  92
ROLLA          SUNNY     83  73  72 S8        30.01S
SEDALIA        SUNNY     86  75  69 SW9       30.01R HX  95

$$
MOZ051-052-059>065-231500-
...EAST CENTRAL MISSOURI...

CITY           SKY/WX    TMP DP  RH WIND       PRES   REMARKS
ST LOUIS INTL  MOSUNNY   85  72  65 S7        30.01S HX  91

$$
MOZ072>076-082>087-097>100-106>115-231500-
...SOUTH CENTRAL AND SOUTHEAST MISSOURI...

CITY           SKY/WX    TMP DP  RH WIND       PRES   REMARKS
CAPE GIRARDEAU PTSUNNY   81  75  82 CALM      30.00R
POPLAR BLUFF   MOSUNNY   81  75  82 NE3       29.99S
WEST PLAINS    SUNNY     83  76  79 CALM      30.06R HX  91

$$


USA.gov is the U.S. government's official web portal to all federal, state and local government web resources and services.